Theta_e
300 300 300 301 301 301 300 301 301 302 301 301 301 301 302 301 302 298 293 295 290 284 285 285 286 282 281 281 277 277 277 276 277 274 272 272 271 272 271 273 272 271 270 268 266 266 265 278 276 273 278 281 281 280
298 300 300 300 300 300 300 300 301 301 301 301 301 301 301 301 301 300 292 294 295 287 286 288 289 289 288 286 284 277 281 275 280 276 274 274 270 271 271 268 274 269 274 272 271 272 278 280 280 282 282 281 281 280
297 297 298 298 300 300 300 300 300 300 300 300 300 301 301 300 299 299 294 293 291 285 285 285 284 289 289 289 290 281 280 282 280 283 277 276 271 275 270 270 273 276 278 273 274 277 278 280 281 282 282 282 282 282
297 297 297 297 298 298 299 299 300 300 300 300 300 300 300 300 300 299 293 293 291 287 280 283 286 287 290 290 289 288 287 283 284 282 279 276 273 278 274 275 274 276 276 274 274 277 278 280 281 282 282 282 281 280
295 296 296 297 297 297 298 299 299 299 299 300 300 300 299 299 300 298 295 294 294 287 280 282 282 285 288 288 287 287 285 283 281 278 278 275 279 277 278 276 274 278 275 273 272 278 278 278 281 282 280 280 277 275
295 295 295 296 296 296 297 297 298 298 298 298 299 299 299 299 299 292 284 291 294 292 283 277 285 281 284 287 286 284 284 284 283 280 279 280 281 278 274 272 278 280 281 280 278 281 281 281 282 280 277 275 273 271
294 294 295 295 296 296 296 296 297 297 298 298 298 298 298 298 295 285 285 289 294 293 282 278 279 280 280 282 283 283 284 283 282 281 279 279 279 279 275 272 278 280 280 280 282 281 278 280 278 273 272 270 269 267
293 293 294 294 295 295 295 296 296 296 297 297 297 297 298 298 296 289 291 295 294 287 284 277 275 274 279 277 277 282 280 281 281 280 280 278 279 278 272 277 279 280 280 280 280 276 275 273 271 269 267 266 265 265
292 292 293 293 293 294 294 295 295 295 296 296 296 296 294 291 285 286 295 295 292 286 278 278 274 271 277 276 278 278 280 275 280 276 276 277 275 271 276 277 278 278 278 278 269 268 267 268 268 265 264 263 262 263
291 291 291 292 292 292 293 293 294 295 295 295 293 285 283 285 294 293 288 284 283 282 281 276 274 272 276 274 274 275 277 274 271 274 278 274 273 278 278 278 273 269 268 268 266 265 263 264 264 263 261 261 261 261
290 290 290 290 291 291 292 292 293 294 294 288 284 283 287 293 286 283 278 277 278 276 279 276 275 271 276 272 273 276 274 274 269 272 271 270 268 274 277 267 265 265 264 261 262 262 261 261 260 260 260 259 259 258
289 289 289 289 290 290 291 292 292 290 287 287 287 287 286 282 279 275 274 276 274 272 271 272 273 276 276 278 275 275 271 272 267 268 269 266 270 270 264 262 260 260 260 258 258 258 258 258 258 257 257 256 256 256
289 289 289 290 290 290 290 291 292 292 291 286 283 279 279 278 272 270 268 268 268 265 268 270 272 275 276 277 275 273 269 268 266 267 266 268 268 260 258 257 255 256 256 256 255 255 255 255 255 254 254 255 255 254
288 289 289 289 289 289 290 290 291 290 285 279 277 272 273 271 272 271 270 269 272 271 268 270 270 272 275 273 274 269 269 266 265 262 263 270 262 256 255 254 254 253 252 253 252 253 253 253 253 253 253 253 252 251
287 288 289 289 289 289 289 290 290 288 283 277 276 270 271 266 261 260 258 268 267 272 271 269 269 274 271 271 273 269 264 264 265 264 268 261 255 253 253 253 251 251 252 251 251 250 251 251 250 250 251 250 250 250
288 287 284 289 288 288 289 288 285 285 282 278 273 268 262 266 262 262 259 263 262 271 271 272 270 269 268 269 267 266 264 262 266 265 258 254 252 252 251 250 250 250 250 250 250 249 250 249 249 250 249 249 250 250
285 279 286 288 287 287 287 283 282 273 270 269 265 260 262 266 268 261 261 264 267 271 269 270 267 266 270 267 264 265 264 269 260 253 253 253 252 251 250 250 250 249 249 249 248 248 248 249 246 247 250 254 252 253
274 280 286 287 283 279 270 270 271 269 263 260 263 259 258 256 258 258 260 265 269 269 269 269 270 266 264 261 262 264 256 250 250 252 252 250 249 248 248 250 247 247 247 247 246 246 246 247 250 253 251 254 254 256
278 282 286 286 280 273 268 265 266 261 256 255 258 258 257 257 258 259 260 263 264 264 267 268 267 265 263 263 261 253 250 252 252 252 252 250 251 249 248 246 246 248 247 248 249 251 251 250 251 253 255 256 256 257
281 281 281 280 278 270 264 262 263 260 257 256 256 255 255 255 255 256 258 261 264 264 265 264 263 259 257 254 251 252 252 251 252 251 251 251 250 247 249 249 251 249 250 250 250 251 253 253 255 255 255 256 255 255
274 275 277 272 267 264 261 259 256 257 256 255 255 255 253 253 251 253 256 257 262 262 260 253 250 247 245 245 246 249 251 252 251 253 252 250 250 250 249 249 248 250 251 251 251 252 253 253 254 254 254 255 255 256
269 274 269 271 263 260 259 259 257 257 255 252 253 253 250 249 248 248 252 255 257 250 249 249 250 249 249 250 248 245 244 243 244 248 248 250 249 250 250 251 252 252 252 252 253 253 253 254 254 254 254 254 254 255
268 268 264 263 260 255 253 257 252 252 253 253 252 253 251 251 251 254 255 252 249 246 244 245 244 241 245 240 238 238 238 244 247 247 248 249 249 250 252 251 253 252 252 253 254 253 253 254 254 254 254 253 253 253
262 255 253 253 254 252 253 252 253 251 250 249 251 249 248 249 249 252 253 245 246 245 245 244 242 244 242 241 244 243 243 242 245 245 245 249 250 250 251 252 253 253 254 254 253 253 253 253 253 253 253 252 252 252
258 248 249 246 248 247 246 248 250 253 249 244 246 246 245 243 251 250 247 246 244 242 242 238 240 244 244 242 243 243 238 245 248 248 247 248 250 251 252 253 254 254 254 253 253 253 252 252 252 252 252 251 251 251
245 241 243 237 243 246 245 248 247 247 247 248 246 243 240 242 246 247 244 244 241 241 241 243 244 242 243 244 246 246 247 245 246 250 252 252 253 253 252 252 252 254 254 254 253 252 251 252 251 250 251 251 251 250
242 240 240 240 241 242 244 243 243 246 245 244 240 242 242 245 245 246 245 244 244 242 242 244 245 246 247 247 248 248 248 251 252 253 253 254 254 254 254 252 252 254 253 252 252 251 250 250 250 250 250 251 251 250
238 237 240 240 239 235 241 241 244 245 243 241 240 245 245 245 245 245 245 248 242 241 241 241 245 249 249 251 252 252 252 253 253 253 253 253 252 253 252 253 253 257 253 253 252 251 250 250 250 250 249 249 250 251
241 240 237 240 239 240 238 239 239 238 239 237 241 244 245 245 243 243 246 248 245 245 245 248 248 249 251 253 253 253 253 253 253 251 250 251 252 253 250 249 249 250 250 250 253 256 252 251 250 250 250 250 251 248
239 235 242 242 243 242 240 238 238 236 236 237 237 242 245 246 246 246 245 247 247 246 247 249 250 252 252 252 251 252 251 249 250 251 249 249 250 247 244 245 247 248 248 247 249 250 252 251 249 245 247 248 248 248
232 232 237 237 240 237 234 232 230 230 230 230 227 234 238 239 243 245 245 243 241 243 247 249 250 250 251 251 250 248 249 246 243 247 247 247 247 247 248 249 248 247 245 246 246 246 247 246 245 245 246 246 246 247
236 234 237 240 239 233 228 229 228 231 232 236 239 234 241 243 248 251 249 248 248 249 250 250 250 251 250 251 249 246 247 244 243 246 247 249 249 249 249 249 247 245 245 246 246 246 246 245 246 247 247 246 246 246
237 237 239 240 242 242 237 236 235 237 235 234 237 238 240 242 247 249 249 246 247 248 249 249 249 248 248 245 244 245 247 247 250 255 257 256 255 254 252 250 249 248 247 248 248 248 246 246 247 247 247 246 247 247
Wind_Speed
20 19 19 20 21 20 20 18 20 20 20 19 19 20 18 16 19 11 3 9 8 5 7 11 10 7 5 6 7 5 4 2 3 7 5 5 6 6 4 5 4 6 5 4 1 4 11 5 5 6 1 9 9 12
16 17 21 21 22 22 22 22 21 20 22 20 18 22 21 19 20 16 4 8 8 5 2 3 12 14 14 12 8 6 4 6 7 5 5 2 4 3 5 7 4 7 9 5 9 7 2 7 7 12 13 13 15 13
19 19 19 17 20 22 22 23 23 22 23 22 20 22 21 22 22 15 6 5 4 3 4 5 9 13 13 14 12 7 4 7 6 3 5 4 5 5 6 9 12 13 13 12 10 19 19 20 19 19 18 17 15 13
18 19 19 20 20 19 22 21 21 23 24 22 22 22 19 19 22 19 6 6 4 1 4 6 2 9 10 17 18 16 13 3 3 5 6 6 6 9 9 11 12 11 5 9 15 20 19 21 19 21 20 16 13 4
20 20 21 21 22 21 20 22 22 21 22 22 21 22 23 20 20 14 4 7 9 5 2 3 2 7 8 15 20 17 14 13 6 5 7 8 8 7 8 8 14 14 20 12 16 19 16 21 18 16 12 12 3 3
22 23 25 23 23 23 22 20 21 21 20 20 19 21 22 19 19 4 4 6 9 7 3 5 1 5 8 14 17 17 15 12 10 6 6 6 8 8 6 10 22 19 15 18 21 23 19 22 19 7 8 5 4 2
18 18 20 22 23 22 22 22 21 20 21 21 20 20 21 22 11 4 4 3 18 9 3 4 5 2 3 4 5 7 9 6 7 6 7 8 7 9 6 12 22 14 15 19 19 15 18 17 9 6 4 5 3 2
18 17 18 18 19 19 20 19 20 20 20 20 20 21 21 22 19 10 5 10 13 5 4 4 2 2 4 5 6 5 6 6 6 5 3 5 3 5 8 18 18 17 18 19 18 6 8 1 7 6 4 2 1 1
20 19 17 16 16 16 18 18 18 18 19 19 19 20 13 9 5 3 21 22 6 5 4 5 6 4 6 3 2 4 5 5 4 6 8 6 6 9 14 17 17 20 15 13 5 4 3 4 5 5 3 2 2 3
17 16 17 17 17 17 16 15 16 17 18 17 9 4 5 5 13 14 10 7 7 6 4 4 3 5 7 6 5 4 4 4 5 6 4 6 11 19 13 10 2 3 4 5 4 4 3 4 5 4 3 2 3 4
17 17 16 15 15 16 17 18 16 15 14 4 5 4 1 13 3 5 5 6 5 6 6 3 10 6 5 4 5 7 5 5 5 5 8 5 6 11 12 6 6 6 6 5 4 4 4 3 2 3 3 3 4 5
18 19 19 18 19 18 16 18 17 10 3 4 4 4 2 5 5 7 7 6 6 8 4 7 6 7 5 3 4 5 4 5 5 3 4 4 5 4 6 6 6 5 5 5 3 4 3 1 2 3 4 6 6 7
17 19 18 21 19 21 20 17 19 17 8 3 4 6 5 5 8 9 13 4 5 5 6 5 6 5 5 5 4 5 6 5 3 5 5 5 1 4 5 6 6 5 5 4 2 2 1 3 3 3 5 6 7 7
12 17 20 19 19 17 19 19 17 13 5 5 6 8 8 6 6 5 6 7 5 6 9 5 4 4 3 6 4 5 3 4 6 5 7 4 3 6 5 4 5 4 2 1 1 2 4 4 5 6 6 6 6 7
16 16 15 17 17 17 17 18 19 7 4 7 5 8 8 2 3 1 1 2 2 6 11 5 3 4 3 4 4 4 4 5 6 6 5 2 5 7 7 5 5 3 1 1 1 3 4 5 5 7 6 5 6 7
18 11 7 14 12 12 17 12 7 3 3 4 2 6 1 0 0 1 2 1 1 5 3 3 4 5 5 5 6 8 6 8 6 5 2 6 6 5 5 4 4 3 2 3 3 3 4 5 5 7 7 7 6 6
9 2 13 8 11 4 4 2 3 3 2 2 1 2 3 3 2 3 3 3 3 4 4 4 7 7 3 4 5 5 7 4 2 3 3 4 6 6 5 4 3 3 1 2 2 2 3 3 3 3 5 5 6 6
2 7 13 8 5 7 4 5 3 3 4 2 1 1 2 1 2 2 1 2 4 2 3 4 4 4 5 8 4 4 2 2 2 4 4 4 4 4 3 3 2 2 2 2 2 2 2 3 4 4 5 6 6 4
2 9 14 9 8 6 3 4 4 4 1 2 2 2 2 2 3 2 2 2 2 2 2 2 3 4 5 3 2 1 3 4 5 5 3 3 3 4 3 2 1 1 0 1 1 1 2 2 3 4 5 5 4 4
6 11 11 16 7 4 4 3 2 4 3 2 2 3 2 2 2 2 3 3 2 2 1 3 4 1 1 1 1 1 3 4 5 5 3 3 3 4 3 2 2 1 1 1 0 1 2 2 2 4 4 4 4 4
5 6 10 6 4 6 5 3 4 3 3 3 1 1 2 3 3 3 2 4 0 2 2 1 1 0 1 1 2 1 5 4 1 2 4 5 4 3 3 2 2 2 1 1 1 2 2 3 4 4 4 4 4 4
2 8 3 5 5 4 5 5 3 2 3 1 2 1 3 2 2 2 3 1 0 2 1 1 1 2 2 2 2 3 2 3 3 4 4 8 5 4 3 3 3 2 1 1 0 2 2 3 3 4 4 4 5 4
5 5 5 6 5 6 1 2 5 4 3 1 0 3 2 1 2 4 1 2 1 2 1 2 3 3 2 1 1 2 1 3 3 3 3 3 3 2 3 2 2 2 1 1 0 1 2 4 3 3 4 4 4 4
11 9 7 5 6 3 2 3 2 3 3 3 3 3 1 1 4 1 2 2 1 1 0 2 2 3 2 2 1 2 2 1 3 2 1 3 3 2 3 2 3 2 1 0 1 1 2 2 3 3 3 4 4 4
7 11 6 7 4 5 6 4 4 2 3 1 2 1 0 3 2 1 1 3 1 2 2 2 2 1 3 0 2 2 2 2 3 3 3 3 2 2 1 2 2 3 3 2 2 2 1 1 2 3 4 4 5 7
10 5 5 1 4 3 2 2 3 2 2 2 2 2 2 3 3 0 3 3 3 3 4 4 4 1 1 3 3 2 3 4 2 2 2 5 4 3 2 2 1 2 5 4 2 2 3 3 3 5 6 6 7 7
7 5 4 0 1 1 2 1 1 1 3 2 2 2 3 4 1 4 3 1 2 3 3 3 4 3 3 2 2 2 2 5 3 2 1 2 3 3 3 3 4 3 3 5 4 4 4 4 5 5 6 6 6 6
3 3 3 5 3 1 3 2 3 3 1 0 1 3 3 3 3 3 2 2 2 2 1 2 2 0 1 2 2 3 2 2 1 3 3 3 4 4 4 4 4 6 3 4 5 5 5 6 6 7 7 8 8 5
3 3 0 5 3 4 2 2 2 2 1 2 2 1 2 2 2 2 2 3 2 1 2 3 1 2 1 2 2 2 2 3 2 2 2 2 3 2 1 2 3 3 3 3 7 9 8 8 8 8 10 8 7 4
4 3 3 2 3 2 2 1 1 1 1 1 2 3 2 3 2 1 2 2 1 0 2 2 3 3 3 2 0 2 2 3 3 3 3 3 4 2 1 2 3 3 2 3 5 5 8 5 6 4 4 5 5 6
2 3 2 2 1 2 2 2 2 1 1 1 1 2 3 4 5 2 1 1 2 1 1 1 1 1 2 2 1 0 3 2 3 6 5 4 4 5 5 5 4 3 3 4 5 5 6 4 5 7 8 9 9 8
3 3 1 4 4 3 3 3 0 2 3 2 2 1 3 2 3 2 1 1 1 1 2 1 1 2 2 2 2 3 3 3 3 5 7 5 6 6 6 5 3 3 4 6 5 6 6 8 7 8 9 11 11 10
1 2 2 2 2 3 3 3 4 3 4 3 3 2 2 2 1 3 1 1 2 3 3 2 2 3 4 4 4 4 5 5 8 10 10 11 12 11 6 5 5 5 7 7 7 7 9 10 10 11 11 11 11 11
Wind_Direction
265 256 248 242 240 242 240 238 241 232 229 240 236 219 208 220 223 195 181 191 177 206 211 205 189 158 136 174 174 157 147 179 162 194 192 212 222 205 239 251 242 254 253 210 199 250 268 130 120 215 253 295 286 280
260 259 259 254 250 247 245 241 243 236 233 236 225 229 230 226 215 205 220 185 199 220 290 233 231 219 211 186 194 196 199 164 180 180 213 187 208 208 208 255 180 252 220 256 213 250 277 193 253 262 280 275 285 286
258 262 264 260 262 253 246 243 244 244 237 239 235 230 222 213 225 221 193 150 193 212 230 202 211 219 226 203 196 202 227 209 200 202 161 200 225 182 220 239 255 257 254 246 268 255 258 263 265 275 281 277 283 286
256 256 260 264 260 260 254 248 244 241 246 238 233 229 240 228 224 225 192 164 174 217 250 248 18 211 219 211 211 218 223 170 232 181 207 207 216 202 229 240 237 243 214 233 252 262 274 266 264 265 271 281 274 235
257 256 257 257 258 258 255 256 246 240 233 237 234 227 231 235 226 216 190 189 188 193 297 306 248 228 195 199 215 215 216 204 205 191 211 222 224 218 236 249 249 234 238 240 252 263 256 267 272 279 268 266 195 208
263 265 261 253 255 253 256 251 252 245 238 235 234 230 226 230 222 168 201 199 190 175 233 249 299 261 202 202 203 201 201 210 214 201 214 225 221 194 224 237 248 252 245 242 251 259 262 265 270 294 248 183 154 159
266 265 267 258 253 251 249 248 244 240 239 236 233 230 227 223 206 195 192 200 180 158 215 241 229 173 170 163 206 214 211 207 209 219 222 230 207 206 231 246 253 253 248 249 253 264 263 257 250 151 155 137 110 45
267 263 265 262 257 253 248 247 245 243 238 232 237 238 235 230 225 212 171 152 144 163 195 214 222 288 183 170 193 185 198 200 205 217 194 216 208 216 241 244 253 256 255 260 260 224 264 98 133 135 120 126 171 233
267 262 261 263 262 258 253 248 245 243 240 236 233 236 241 222 201 193 173 179 189 159 204 197 180 217 158 190 166 180 195 210 181 214 224 182 212 221 230 239 240 243 247 255 126 132 141 194 165 154 162 185 275 279
261 259 261 258 255 255 252 253 249 244 238 235 226 198 216 192 140 144 173 193 204 184 210 194 111 189 175 172 179 166 195 214 205 227 159 220 235 241 249 244 285 115 131 133 152 223 197 212 196 189 221 253 265 290
255 252 252 253 256 259 251 246 244 237 235 192 187 208 63 164 129 175 184 187 157 198 195 142 192 176 197 165 186 213 186 194 215 203 197 207 244 235 241 142 114 111 115 94 89 92 81 87 186 257 272 290 302 304
259 259 254 257 247 241 248 243 234 216 191 176 124 104 165 206 172 187 181 162 196 195 166 162 178 182 153 160 203 181 211 189 224 125 208 230 242 174 136 129 103 91 98 99 72 96 65 28 358 298 295 292 295 294
270 262 262 253 253 250 233 238 230 216 178 131 195 174 214 170 204 191 174 169 176 166 174 171 172 145 143 187 190 190 216 214 107 192 227 238 175 119 132 127 115 105 105 106 104 66 334 294 297 270 284 279 282 281
297 277 259 252 245 245 233 222 231 220 197 191 190 203 208 192 212 175 170 164 191 156 156 147 130 160 166 175 179 206 153 140 204 213 225 222 164 143 130 108 130 136 91 83 301 310 302 295 294 289 274 280 280 276
318 303 270 239 241 235 233 226 221 193 241 192 192 217 196 130 4 1 36 138 167 145 138 116 87 140 160 182 198 119 165 221 219 221 224 132 142 146 145 138 131 142 165 244 267 289 292 296 298 301 293 287 283 276
317 290 259 236 228 237 230 226 215 145 221 261 177 144 70 122 205 146 130 164 231 140 93 83 137 168 191 186 181 200 179 212 219 209 123 132 145 142 143 149 158 161 197 251 269 267 299 293 281 287 299 283 268 256
356 7 333 261 213 67 41 119 164 107 13 104 96 7 343 88 125 136 146 163 167 178 154 138 181 193 111 187 196 191 205 224 122 149 136 122 151 153 147 154 183 168 178 266 279 269 261 288 301 284 300 309 297 283
356 302 316 302 89 73 44 25 72 71 65 39 255 46 69 25 92 80 99 149 157 144 155 165 133 186 187 174 230 214 148 123 90 126 137 146 142 145 164 182 171 175 215 243 254 299 294 306 311 312 297 292 295 294
343 13 355 116 98 95 80 51 10 103 92 328 32 21 27 70 45 60 28 8 65 92 142 161 176 180 214 208 231 173 178 172 156 159 142 139 136 150 165 193 201 115 287 263 214 303 319 288 279 304 309 312 320 334
35 29 37 38 51 86 89 54 30 93 128 116 68 35 15 29 4 316 63 20 28 85 147 199 211 172 117 74 73 162 130 148 135 118 134 166 163 162 168 153 126 115 150 58 51 354 5 356 357 344 332 329 337 349
21 347 26 57 59 58 68 51 55 72 126 90 96 69 77 15 20 10 48 340 299 200 218 68 133 112 344 340 31 2 110 165 163 117 149 157 165 160 144 150 166 149 111 74 37 353 5 7 346 346 344 345 346 354
321 14 49 46 78 61 71 17 86 86 67 110 62 25 48 39 8 360 289 69 87 65 35 76 121 127 110 99 65 44 89 108 79 92 80 110 132 152 164 167 166 157 161 134 346 345 344 345 344 349 347 341 346 346
23 28 53 21 80 49 326 12 69 359 82 125 90 72 39 20 1 345 284 30 29 65 29 39 38 29 74 67 54 40 192 143 120 119 121 116 121 130 130 151 161 153 170 174 248 299 316 332 337 341 339 340 339 336
30 46 35 43 22 76 24 43 65 77 62 47 99 125 196 321 331 167 258 293 308 1 360 136 148 89 31 24 118 227 215 144 111 113 159 136 136 202 189 189 191 205 208 232 258 280 292 317 330 335 336 330 330 327
72 6 12 10 8 38 39 24 0 80 95 327 113 116 346 316 172 162 217 281 275 223 191 183 186 126 141 231 314 273 225 167 149 156 212 190 155 136 172 215 222 221 182 201 221 226 282 302 307 314 311 309 311 311
68 327 45 279 332 52 353 66 29 49 46 59 38 359 4 84 72 311 255 252 240 211 192 183 163 120 268 204 151 181 216 186 163 130 204 191 197 183 194 215 250 262 188 197 184 220 264 279 289 301 302 301 297 300
60 338 332 324 149 169 69 62 94 55 66 48 294 18 56 68 12 274 300 226 256 231 215 179 166 167 173 180 243 260 197 173 186 172 132 190 215 207 194 209 231 241 172 181 190 202 241 272 281 278 280 287 275 268
126 23 51 314 21 1 115 41 35 46 347 257 83 43 108 156 213 258 239 309 258 307 182 186 212 217 174 195 178 140 127 157 239 278 264 247 233 226 217 227 228 232 194 200 210 217 226 241 253 263 268 272 281 262
41 359 122 2 10 44 62 108 200 253 310 105 120 332 291 254 243 297 321 330 337 40 78 130 198 208 111 85 93 106 132 160 111 43 6 313 336 332 238 233 237 238 236 239 250 243 231 234 242 247 255 259 273 281
341 359 349 24 57 30 277 331 255 331 277 330 309 285 261 271 261 260 289 312 30 243 222 228 167 161 154 136 71 301 234 202 189 173 203 235 230 250 274 274 270 258 249 242 257 271 285 299 312 315 289 283 274 277
309 10 36 37 128 260 251 331 313 315 360 350 310 163 248 305 300 221 256 235 258 257 111 91 123 198 152 172 172 293 307 285 223 240 248 258 265 261 260 252 241 228 223 232 243 249 262 268 256 269 274 272 271 264
3 58 46 0 318 283 35 48 346 64 322 38 345 240 295 294 24 324 28 295 335 326 269 204 225 269 225 250 248 255 239 276 256 248 251 246 253 252 254 253 232 220 232 239 236 239 237 245 260 258 265 271 271 270
296 228 218 282 334 0 350 17 16 4 27 31 360 355 2 343 76 297 329 198 255 283 287 287 292 309 291 263 252 271 260 253 266 278 277 270 264 265 263 244 234 223 233 243 245 239 243 246 254 259 261 261 265 268